DW3092 Weather Reports


Display with metric or nautical units.
time (UTC)temp
F
wind
direction
speed
MPH
gust
MPH
rain 1hr
in
rain 24hr
in
rain mn
in
humidity
%
barometer
mb
20240416111503 47 313 1.0 6.0 0.00 0.00 0.00 66 1016.2
20240416111003 47 314 0.0 6.0 0.00 0.00 0.00 66 1016.2
20240416110503 47 314 0.0 4.0 0.00 0.00 0.00 67 1016.0
20240416110214 47 314 0.0 4.0 0.00 0.00 0.00 67 1016.0
20240416105503 46 314 0.0 4.0 0.00 0.00 0.00 68 1015.9
20240416105003 46 314 0.0 4.0 0.00 0.00 0.00 69 1015.8
20240416104503 46 314 0.0 3.0 0.00 0.00 0.00 70 1015.8
20240416104214 46 314 0.0 3.0 0.00 0.00 0.00 70 1015.7
20240416103503 46 314 0.0 2.0 0.00 0.00 0.00 70 1015.7
20240416103003 46 314 0.0 3.0 0.00 0.00 0.00 70 1015.6
20240416102713 46 314 1.0 5.0 0.00 0.00 0.00 71 1015.6
20240416102003 45 314 1.0 5.0 0.00 0.00 0.00 72 1015.5
20240416101503 44 314 0.0 2.0 0.00 0.00 0.00 74 1015.4
20240416101003 44 314 0.0 2.0 0.00 0.00 0.00 75 1015.4
20240416100503 44 0 0.0 0.0 0.00 0.00 0.00 76 1015.3
20240416100003 44 0 0.0 0.0 0.00 0.00 0.00 76 1015.3
20240416095503 44 0 0.0 0.0 0.00 0.00 0.00 76 1015.2
20240416095214 44 0 0.0 0.0 0.00 0.00 0.00 76 1015.2
20240416094503 45 314 0.0 1.0 0.00 0.00 0.00 76 1015.1
20240416094003 45 0 0.0 0.0 0.00 0.00 0.00 75 1015.1
20240416093503 45 0 0.0 0.0 0.00 0.00 0.00 75 1015.0
20240416093214 45 0 0.0 0.0 0.00 0.00 0.00 75 1015.0
20240416092503 45 314 0.0 2.0 0.00 0.00 0.00 75 1014.9
20240416092003 45 314 0.0 2.0 0.00 0.00 0.00 75 1014.8
20240416091503 45 0 0.0 0.0 0.00 0.00 0.00 76 1014.7
20240416091003 45 0 0.0 0.0 0.00 0.00 0.00 76 1014.7
20240416090503 45 314 0.0 2.0 0.00 0.00 0.00 76 1014.6
20240416090003 44 314 0.0 4.0 0.00 0.00 0.00 77 1014.5
20240416085712 44 314 0.0 4.0 0.00 0.00 0.00 79 1014.5
20240416085213 44 314 0.0 4.0 0.00 0.00 0.00 81 1014.5
20240416084503 43 0 0.0 0.0 0.00 0.00 0.00 83 1014.4
20240416084003 43 0 0.0 0.0 0.00 0.00 0.00 82 1014.4
20240416083503 44 0 0.0 0.0 0.00 0.00 0.00 82 1014.4
20240416083003 44 0 0.0 0.0 0.00 0.00 0.00 82 1014.4
20240416082503 44 0 0.0 0.0 0.00 0.00 0.00 82 1014.4
20240416082003 44 0 0.0 0.0 0.00 0.00 0.00 82 1014.4
20240416081503 44 0 0.0 0.0 0.00 0.00 0.00 82 1014.3
20240416081003 44 0 0.0 0.0 0.00 0.00 0.00 81 1014.3
20240416080503 44 0 0.0 0.0 0.00 0.00 0.00 81 1014.3
20240416080003 45 0 0.0 0.0 0.00 0.00 0.00 80 1014.2
20240416075503 45 0 0.0 0.0 0.00 0.00 0.00 81 1014.2
20240416075003 45 0 0.0 0.0 0.00 0.00 0.00 81 1014.2
20240416074503 45 0 0.0 0.0 0.00 0.00 0.00 81 1014.2
20240416074003 45 0 0.0 0.0 0.00 0.00 0.00 81 1014.2
20240416073503 45 0 0.0 0.0 0.00 0.00 0.00 81 1014.1
20240416073003 46 0 0.0 0.0 0.00 0.00 0.00 80 1014.1
20240416072503 45 0 0.0 0.0 0.00 0.00 0.00 80 1014.0
20240416072213 45 0 0.0 0.0 0.00 0.00 0.00 81 1014.0
20240416071503 45 0 0.0 0.0 0.00 0.00 0.00 83 1013.9
20240416071003 45 0 0.0 0.0 0.00 0.00 0.00 83 1013.8
20240416070503 45 0 0.0 0.0 0.00 0.00 0.00 83 1013.8
20240416070003 45 0 0.0 0.0 0.00 0.00 0.00 83 1013.9
20240416065503 45 0 0.0 0.0 0.00 0.00 0.00 83 1013.9
20240416065003 45 0 0.0 0.0 0.00 0.00 0.00 83 1013.9
20240416064503 45 0 0.0 0.0 0.00 0.00 0.00 82 1013.8
20240416064003 45 0 0.0 0.0 0.00 0.00 0.00 83 1013.9
20240416063503 45 0 0.0 0.0 0.00 0.00 0.00 82 1013.7
20240416063003 46 0 0.0 0.0 0.00 0.00 0.00 82 1013.9
20240416062503 46 0 0.0 0.0 0.00 0.00 0.00 81 1013.8
20240416062003 46 0 0.0 0.0 0.00 0.00 0.00 80 1013.7
20240416061503 46 0 0.0 0.0 0.00 0.00 0.00 80 1014.0
20240416061003 47 0 0.0 0.0 0.00 0.00 0.00 80 1013.8
20240416060503 47 0 0.0 0.0 0.00 0.00 0.00 80 1013.8
20240416060003 47 0 0.0 0.0 0.00 0.00 0.00 79 1013.7
20240416055503 47 0 0.0 0.0 0.00 0.00 0.00 79 1013.7
20240416055214 47 0 0.0 0.0 0.00 0.00 0.00 79 1013.7
20240416054503 48 0 0.0 0.0 0.00 0.00 0.00 79 1013.8
20240416054214 48 0 0.0 0.0 0.00 0.00 0.00 78 1013.8
20240416053503 48 0 0.0 0.0 0.00 0.00 0.00 78 1013.8
20240416053003 48 0 0.0 0.0 0.00 0.00 0.00 78 1014.0
20240416052503 48 0 0.0 0.0 0.00 0.00 0.00 77 1014.1
20240416052214 48 0 0.0 0.0 0.00 0.00 0.00 77 1014.0
20240416051503 48 0 0.0 0.0 0.00 0.00 0.00 77 1013.8
20240416051003 48 0 0.0 0.0 0.00 0.00 0.00 76 1013.9
20240416050503 48 0 0.0 0.0 0.00 0.00 0.00 76 1013.9
20240416050003 48 0 0.0 0.0 0.00 0.00 0.00 77 1013.9
20240416045503 48 0 0.0 0.0 0.00 0.00 0.00 77 1013.8
20240416045214 48 0 0.0 0.0 0.00 0.00 0.00 77 1013.7
20240416044503 48 0 0.0 0.0 0.00 0.00 0.00 77 1013.8
20240416044003 48 0 0.0 0.0 0.00 0.00 0.00 77 1013.9
20240416043503 48 0 0.0 0.0 0.00 0.00 0.00 78 1013.9
20240416043003 48 0 0.0 0.0 0.00 0.00 0.00 78 1013.7
20240416042503 48 0 0.0 0.0 0.00 0.00 0.00 77 1013.8
20240416042003 48 0 0.0 0.0 0.00 0.00 0.00 78 1013.7
20240416041503 48 0 0.0 0.0 0.00 0.00 0.00 77 1013.6
20240416041003 48 0 0.0 0.0 0.00 0.00 0.00 81 1013.6
20240416040503 48 314 0.0 2.0 0.00 0.00 0.00 77 1013.6
20240416040214 48 314 0.0 2.0 0.00 0.00 0.00 77 1013.7
20240416035503 49 0 0.0 0.0 0.00 0.00 0.00 76 1013.4
20240416035213 49 0 0.0 0.0 0.00 0.00 0.00 76 1013.3
20240416034503 49 0 0.0 0.0 0.00 0.00 0.00 75 1013.4
20240416034003 49 0 0.0 0.0 0.00 0.00 0.00 75 1013.5
20240416033503 49 0 0.0 0.0 0.00 0.00 0.00 75 1013.3
20240416033003 49 0 0.0 0.0 0.00 0.01 0.00 75 1013.3
20240416032503 50 0 0.0 0.0 0.00 0.01 0.00 74 1013.4
20240416032003 50 0 0.0 0.0 0.00 0.01 0.00 73 1013.1
20240416031503 50 0 0.0 0.0 0.00 0.01 0.00 72 1013.1
20240416031003 51 0 0.0 0.0 0.00 0.01 0.00 71 1013.3
20240416030503 51 0 0.0 0.0 0.00 0.01 0.00 71 1013.1
20240416030003 51 0 0.0 0.0 0.00 0.01 0.00 71 1013.1
20240416025503 51 0 0.0 0.0 0.00 0.01 0.00 70 1013.1
20240416025003 52 0 0.0 0.0 0.00 0.01 0.00 69 1013.2
20240416024503 52 0 0.0 0.0 0.00 0.01 0.00 68 1013.2
20240416024003 52 0 0.0 0.0 0.00 0.01 0.00 67 1013.1
20240416023503 53 0 0.0 0.0 0.00 0.01 0.00 67 1013.0
20240416023213 53 0 0.0 0.0 0.00 0.01 0.00 66 1013.2
20240416022503 53 0 0.0 0.0 0.00 0.01 0.00 65 1013.4
20240416022003 53 0 0.0 0.0 0.00 0.01 0.00 63 1013.4
20240416021714 54 0 0.0 0.0 0.00 0.01 0.00 63 1013.4
20240416021003 54 0 0.0 0.0 0.00 0.01 0.00 62 1013.2
20240416020714 54 0 0.0 0.0 0.00 0.01 0.00 62 1013.1
20240416020003 55 0 0.0 0.0 0.00 0.01 0.00 61 1013.0
20240416015503 55 0 0.0 0.0 0.00 0.01 0.00 59 1013.0
20240416015003 55 0 0.0 0.0 0.00 0.01 0.00 58 1012.9
20240416014503 56 0 0.0 0.0 0.00 0.01 0.00 57 1013.0
20240416014003 56 0 0.0 0.0 0.00 0.01 0.00 54 1013.0
20240416013503 56 0 0.0 0.0 0.00 0.01 0.00 50 1013.1
20240416013003 56 0 0.0 0.0 0.00 0.01 0.00 48 1013.0
20240416012503 57 0 0.0 0.0 0.00 0.01 0.00 46 1012.8
20240416012212 57 314 0.0 2.0 0.00 0.01 0.00 46 1012.6
20240416011503 58 314 0.0 2.0 0.00 0.01 0.00 44 1012.2
20240416011212 58 314 0.0 4.0 0.00 0.01 0.00 43 1012.2
20240416010503 58 315 1.0 5.0 0.00 0.01 0.00 42 1012.1
20240416010003 58 333 1.0 5.0 0.00 0.01 0.00 42 1011.9
20240416005503 58 3 1.0 5.0 0.00 0.01 0.00 44 1011.9
20240416005003 58 7 1.0 8.0 0.00 0.01 0.00 43 1011.9
20240416004503 59 10 1.0 8.0 0.00 0.01 0.00 43 1011.7
20240416004212 59 12 1.0 6.0 0.00 0.01 0.00 44 1011.5
20240416003503 59 1 1.0 8.0 0.00 0.01 0.00 43 1011.4
20240416003003 59 356 1.0 5.0 0.00 0.01 0.00 43 1011.2
20240416002503 59 358 1.0 8.0 0.00 0.01 0.00 43 1011.2
20240416002003 60 353 1.0 8.0 0.00 0.01 0.00 43 1011.1
20240416001503 60 346 2.0 8.0 0.00 0.01 0.00 43 1011.1
20240416001212 60 341 2.0 9.0 0.00 0.01 0.00 44 1010.9
20240416000713 60 351 2.0 9.0 0.00 0.01 0.00 44 1010.8
20240416000214 60 5 2.0 9.0 0.00 0.01 0.00 43 1010.7
20240415235713 61 352 2.0 12.0 0.00 0.01 0.00 44 1010.6
20240415235214 61 351 3.0 12.0 0.00 0.01 0.00 43 1010.5
20240415234503 61 342 2.0 9.0 0.00 0.01 0.00 43 1010.4
20240415234003 61 349 3.0 10.0 0.00 0.01 0.00 43 1010.2
20240415233503 62 354 2.0 10.0 0.00 0.01 0.00 43 1010.1
20240415233003 62 351 2.0 11.0 0.00 0.01 0.00 43 1010.1
20240415232503 62 345 2.0 11.0 0.00 0.01 0.00 42 1010.0
20240415232214 62 344 1.0 11.0 0.00 0.01 0.00 43 1009.9
20240415231503 62 346 2.0 11.0 0.00 0.01 0.00 44 1009.8
20240415231214 62 344 3.0 11.0 0.00 0.01 0.00 44 1009.7
20240415230713 63 354 4.0 11.0 0.00 0.01 0.00 43 1009.7
20240415230003 63 350 2.0 10.0 0.00 0.01 0.00 43 1009.5
20240415225713 63 340 2.0 5.0 0.00 0.01 0.00 43 1009.4
20240415225003 64 345 2.0 9.0 0.00 0.01 0.00 42 1009.4
20240415224503 64 352 3.0 13.0 0.00 0.01 0.00 42 1009.3
20240415224003 64 346 3.0 13.0 0.00 0.01 0.00 42 1009.3
20240415223503 64 328 2.0 10.0 0.00 0.01 0.00 41 1009.3
20240415223214 64 317 3.0 10.0 0.00 0.01 0.00 41 1009.1
20240415222503 65 330 3.0 12.0 0.00 0.01 0.00 41 1009.1
20240415222003 65 358 4.0 12.0 0.00 0.01 0.00 41 1009.0
20240415221503 65 356 4.0 15.0 0.00 0.02 0.00 41 1009.0
20240415221003 65 337 4.0 15.0 0.00 0.02 0.00 40 1008.9
20240415220503 66 335 3.0 14.0 0.00 0.03 0.00 40 1008.8
20240415220003 66 330 3.0 10.0 0.00 0.04 0.00 40 1008.7
20240415215503 66 346 4.0 11.0 0.00 0.04 0.00 40 1008.7
20240415215003 67 350 4.0 11.0 0.00 0.04 0.00 41 1008.7
20240415214503 67 336 3.0 9.0 0.00 0.04 0.00 40 1008.5
20240415214003 67 335 3.0 9.0 0.00 0.04 0.00 41 1008.5
20240415213503 67 330 2.0 10.0 0.00 0.05 0.00 43 1008.5
20240415213003 67 324 2.0 10.0 0.00 0.05 0.00 43 1008.4
20240415212503 67 335 3.0 11.0 0.00 0.05 0.00 42 1008.4
20240415212003 67 338 5.0 12.0 0.00 0.05 0.00 43 1008.3
20240415211503 66 332 4.0 12.0 0.00 0.06 0.00 43 1008.3
20240415211003 66 332 4.0 15.0 0.00 0.07 0.00 42 1008.2
20240415210503 66 335 4.0 15.0 0.00 0.07 0.00 44 1008.2
20240415210003 66 336 4.0 13.0 0.00 0.08 0.00 45 1008.2
20240415205503 66 335 4.0 13.0 0.00 0.08 0.00 44 1008.0
20240415205213 66 329 4.0 13.0 0.00 0.08 0.00 44 1008.0
20240415204503 66 322 5.0 15.0 0.00 0.08 0.00 44 1007.9
20240415204003 67 321 5.0 15.0 0.00 0.08 0.00 44 1007.9
20240415203503 67 322 5.0 12.0 0.00 0.08 0.00 44 1007.7
20240415203003 68 325 3.0 10.0 0.00 0.08 0.00 46 1007.6
20240415202503 68 323 4.0 12.0 0.00 0.08 0.00 44 1007.5
20240415202003 68 322 4.0 13.0 0.00 0.08 0.00 44 1007.4
20240415201503 68 318 5.0 13.0 0.00 0.08 0.00 43 1007.3
20240415201212 69 324 5.0 13.0 0.00 0.08 0.00 43 1007.3
20240415200714 69 326 6.0 13.0 0.00 0.08 0.00 43 1007.2
20240415200003 70 331 6.0 18.0 0.00 0.08 0.00 41 1007.1
20240415195503 70 315 6.0 17.0 0.00 0.08 0.00 41 1006.9
20240415195212 70 317 5.0 17.0 0.00 0.08 0.00 41 1006.8
20240415194714 70 317 3.0 11.0 0.00 0.08 0.00 41 1006.7
20240415194003 70 315 5.0 19.0 0.00 0.08 0.00 41 1006.6
20240415193503 70 328 5.0 19.0 0.00 0.08 0.00 39 1006.5
20240415193212 70 318 5.0 15.0 0.00 0.08 0.00 40 1006.5
20240415192503 70 318 5.0 16.0 0.00 0.08 0.00 41 1006.5
20240415192214 70 330 5.0 16.0 0.00 0.08 0.00 39 1006.5
20240415191503 71 329 5.0 12.0 0.00 0.08 0.00 37 1006.5
20240415191003 71 328 6.0 17.0 0.00 0.08 0.00 38 1006.4
20240415190713 71 327 6.0 17.0 0.00 0.08 0.00 39 1006.5
20240415190003 71 321 5.0 14.0 0.00 0.08 0.00 40 1006.6
20240415185503 71 315 5.0 15.0 0.00 0.08 0.00 40 1006.6
20240415185214 72 304 4.0 15.0 0.00 0.08 0.00 40 1006.7
20240415184503 72 276 5.0 13.0 0.00 0.08 0.00 43 1006.5
20240415184003 72 260 5.0 15.0 0.00 0.08 0.00 41 1006.6
20240415183503 72 286 5.0 15.0 0.00 0.08 0.00 41 1006.5
20240415183214 71 307 5.0 14.0 0.00 0.08 0.00 41 1006.6
20240415182713 71 312 6.0 19.0 0.00 0.08 0.00 43 1006.6
20240415182214 71 318 5.0 19.0 0.00 0.08 0.00 42 1006.6
20240415181503 71 307 5.0 13.0 0.00 0.08 0.00 39 1006.7
20240415181003 71 315 5.0 14.0 0.00 0.08 0.00 40 1006.6
20240415180503 71 306 7.0 18.0 0.00 0.08 0.00 41 1006.4
20240415180214 70 315 7.0 18.0 0.00 0.08 0.00 40 1006.6
20240415175503 70 323 6.0 16.0 0.00 0.08 0.00 41 1006.5
20240415175003 70 319 6.0 16.0 0.00 0.08 0.00 41 1006.6
20240415174713 70 327 6.0 16.0 0.00 0.08 0.00 42 1006.6
20240415174003 70 318 4.0 14.0 0.00 0.08 0.00 44 1006.7
20240415173713 70 313 4.0 14.0 0.00 0.08 0.00 43 1006.7
20240415173003 70 323 3.0 10.0 0.00 0.08 0.00 43 1006.6
20240415172503 70 315 3.0 13.0 0.00 0.08 0.00 46 1006.7
20240415172214 70 297 4.0 13.0 0.00 0.08 0.00 44 1006.7
20240415171503 70 291 5.0 14.0 0.00 0.08 0.00 46 1006.7
20240415171213 70 306 5.0 14.0 0.00 0.08 0.00 46 1006.7
20240415170712 70 310 4.0 13.0 0.00 0.08 0.00 46 1006.6
20240415170003 70 292 3.0 12.0 0.00 0.08 0.00 47 1006.5
20240415165503 69 287 3.0 11.0 0.00 0.08 0.00 48 1006.4
20240415165003 69 291 3.0 11.0 0.00 0.08 0.00 52 1006.3
20240415164503 69 309 3.0 8.0 0.00 0.08 0.00 54 1006.3
20240415164213 69 305 3.0 10.0 0.00 0.08 0.00 53 1006.4
20240415163503 69 294 2.0 10.0 0.00 0.08 0.00 53 1006.5
20240415163003 68 267 2.0 6.0 0.00 0.08 0.00 56 1006.6
20240415162503 68 272 2.0 8.0 0.00 0.08 0.00 54 1006.7
20240415162003 67 292 1.0 8.0 0.00 0.08 0.00 55 1006.9
20240415161503 67 275 2.0 8.0 0.00 0.08 0.00 58 1006.9
20240415161003 66 293 2.0 8.0 0.00 0.08 0.00 57 1007.1
20240415160714 66 317 2.0 9.0 0.00 0.08 0.00 57 1007.0
20240415160003 66 340 4.0 10.0 0.00 0.08 0.00 57 1007.1
20240415155503 65 333 4.0 11.0 0.00 0.08 0.00 59 1007.2
20240415155003 65 325 4.0 11.0 0.00 0.08 0.00 58 1007.2
20240415154714 65 332 4.0 10.0 0.00 0.08 0.00 60 1007.3
20240415154003 65 321 4.0 10.0 0.00 0.08 0.00 59 1007.1
20240415153503 65 297 3.0 10.0 0.00 0.08 0.00 60 1007.2
20240415153003 64 271 3.0 10.0 0.00 0.08 0.00 61 1007.3
20240415152503 64 247 3.0 9.0 0.00 0.08 0.00 60 1007.5
20240415152003 64 264 3.0 9.0 0.00 0.08 0.00 61 1007.4
20240415151503 64 315 2.0 7.0 0.00 0.08 0.00 62 1007.6
20240415151003 63 308 2.0 9.0 0.00 0.08 0.00 63 1007.6
20240415150503 63 277 1.0 9.0 0.00 0.08 0.00 63 1007.6
20240415150003 63 252 0.0 4.0 0.00 0.08 0.00 63 1007.7
20240415145503 63 251 1.0 4.0 0.00 0.08 0.00 66 1007.7
20240415145003 62 250 1.0 4.0 0.00 0.08 0.00 66 1007.8
20240415144714 62 250 1.0 4.0 0.00 0.08 0.00 67 1007.8
20240415144212 62 250 1.0 5.0 0.00 0.08 0.00 68 1007.8
20240415143503 61 250 1.0 5.0 0.00 0.08 0.00 68 1007.8
20240415143003 61 250 1.0 8.0 0.00 0.08 0.00 70 1007.7
20240415142503 60 250 1.0 8.0 0.00 0.08 0.00 70 1007.8
20240415142212 60 250 1.0 4.0 0.00 0.08 0.00 70 1007.8
20240415141713 60 250 1.0 4.0 0.00 0.08 0.00 72 1007.8
20240415141003 59 250 0.0 4.0 0.00 0.08 0.00 73 1007.8
20240415140713 59 250 0.0 4.0 0.00 0.08 0.00 74 1007.8
20240415140003 59 250 0.0 4.0 0.00 0.08 0.00 75 1007.8
20240415135503 58 250 0.0 2.0 0.00 0.08 0.00 75 1007.8
20240415135003 58 250 0.0 1.0 0.00 0.08 0.00 78 1007.8
20240415134503 57 250 0.0 4.0 0.00 0.08 0.00 78 1007.8
20240415134003 57 250 1.0 4.0 0.00 0.08 0.00 79 1007.8
20240415133503 56 250 1.0 4.0 0.00 0.08 0.00 79 1007.7
20240415133003 56 250 1.0 4.0 0.00 0.08 0.00 81 1007.8
20240415132503 55 250 0.0 4.0 0.00 0.08 0.00 82 1007.8
20240415132003 55 250 0.0 3.0 0.00 0.08 0.00 83 1007.8
20240415131503 54 250 1.0 4.0 0.00 0.08 0.00 84 1007.7
20240415131003 54 249 0.0 4.0 0.00 0.08 0.00 85 1007.7
20240415130503 53 249 0.0 3.0 0.00 0.08 0.00 87 1007.6
20240415130003 53 249 0.0 4.0 0.00 0.08 0.00 88 1007.6
20240415125713 52 249 0.0 4.0 0.00 0.08 0.00 88 1007.7
20240415125003 52 249 0.0 3.0 0.00 0.08 0.00 92 1007.5
20240415124503 51 249 0.0 1.0 0.00 0.08 0.00 94 1007.4
20240415124003 51 249 0.0 1.0 0.00 0.08 0.00 95 1007.2
20240415123503 51 0 0.0 0.0 0.00 0.08 0.00 96 1007.2
20240415123003 50 0 0.0 0.0 0.00 0.08 0.00 96 1007.1
20240415122503 50 0 0.0 0.0 0.00 0.08 0.00 96 1007.2
20240415122003 49 0 0.0 0.0 0.00 0.08 0.00 96 1007.2
20240415121503 49 0 0.0 0.0 0.00 0.08 0.00 96 1007.2
20240415121003 48 0 0.0 0.0 0.00 0.08 0.00 96 1007.1
20240415120503 48 0 0.0 0.0 0.00 0.08 0.00 96 1007.2
20240415120003 48 0 0.0 0.0 0.00 0.08 0.00 96 1007.3
20240415115712 47 0 0.0 0.0 0.00 0.08 0.00 96 1007.3
20240415115003 46 0 0.0 0.0 0.00 0.08 0.00 96 1007.1
20240415114503 46 0 0.0 0.0 0.00 0.08 0.00 96 1007.1
20240415114003 45 0 0.0 0.0 0.00 0.08 0.00 96 1006.8
20240415113712 45 0 0.0 0.0 0.00 0.08 0.00 96 1006.8
20240415113003 44 0 0.0 0.0 0.00 0.08 0.00 95 1006.5
20240415112503 44 0 0.0 0.0 0.00 0.08 0.00 95 1006.5
20240415112003 44 0 0.0 0.0 0.00 0.08 0.00 95 1006.5